Location: Mexico
(19.4000°N, 99.1500°W)
Time: 09:22:29
(UTC-06:00)

ISS - Pass Details

Date: 16 February 2018
Orbit: 403 x 406 km, 51.6° (Epoch: 26 February)

Event Time Altitude Azimuth Distance (km) Brightness Sun altitude
Rises 19:05:42 0° 314° (NW) 2,308 0.6 -7.5°
Reaches altitude 10° 19:07:48 10° 309° (NW) 1,448 -0.4 -8.0°
Maximum altitude 19:10:58 49° 233° (SW) 522 -2.8 -8.7°
Drops below altitude 10° 19:14:07 10° 157° (SSE) 1,447 -1.2 -9.4°
Sets 19:16:13 0° 151° (SSE) 2,304 -0.2 -9.9°
